Time,TemperatureF,DewpointF,PressureIn,WindDirection,WindDirectionDegrees,WindSpeedMPH,WindSpeedGustMPH,Humidity,HourlyPrecipIn,Conditions,Clouds,dailyrainin,SoftwareType,DateUTC
2013-03-07 00:02:00,-999.9,-99.9,30.19,ENE,76,1.0,1.0,255,0.00,,,0.00,Wunderground v.1.13,2013-03-07 06:02:00,
2013-03-07 00:12:00,-999.9,-99.9,30.19,ENE,76,1.0,1.0,255,0.00,,,0.00,Wunderground v.1.13,2013-03-07 06:12:00,
2013-03-07 00:22:00,-999.9,-99.9,30.19,ENE,76,1.0,3.0,255,0.00,,,0.00,Wunderground v.1.13,2013-03-07 06:22:00,
2013-03-07 00:32:00,-999.9,-99.9,30.19,ENE,76,1.0,1.0,255,0.00,,,0.00,Wunderground v.1.13,2013-03-07 06:32:00,
2013-03-07 00:42:00,-999.9,-99.9,30.18,ENE,76,1.0,1.0,255,0.00,,,0.00,Wunderground v.1.13,2013-03-07 06:42:00,
2013-03-07 00:52:00,-999.9,-99.9,30.19,ENE,76,0.0,0.0,255,0.00,,,0.00,Wunderground v.1.13,2013-03-07 06:52:00,
2013-03-07 01:02:00,-999.9,-99.9,30.17,ENE,76,0.0,0.0,255,0.00,,,0.00,Wunderground v.1.13,2013-03-07 07:02:00,
2013-03-07 01:12:00,-999.9,-99.9,30.16,ENE,76,1.0,1.0,255,0.00,,,0.00,Wunderground v.1.13,2013-03-07 07:12:00,
2013-03-07 01:22:00,-999.9,-99.9,30.16,ENE,76,1.0,1.0,255,0.00,,,0.00,Wunderground v.1.13,2013-03-07 07:22:00,
2013-03-07 01:32:00,-999.9,-99.9,30.16,ENE,76,1.0,1.0,255,0.00,,,0.00,Wunderground v.1.13,2013-03-07 07:32:00,
2013-03-07 01:42:00,-999.9,-99.9,30.15,ENE,78,2.0,2.0,255,0.00,,,0.00,Wunderground v.1.13,2013-03-07 07:42:00,
2013-03-07 01:52:00,-999.9,-99.9,30.15,East,79,2.0,2.0,255,0.00,,,0.00,Wunderground v.1.13,2013-03-07 07:52:00,
2013-03-07 02:02:00,-999.9,-99.9,30.15,East,80,2.0,2.0,255,0.00,,,0.00,Wunderground v.1.13,2013-03-07 08:02:00,
2013-03-07 02:12:00,-999.9,-99.9,30.14,East,80,2.0,2.0,255,0.00,,,0.00,Wunderground v.1.13,2013-03-07 08:12:00,
2013-03-07 02:22:00,-999.9,-99.9,30.14,East,80,2.0,3.0,255,0.00,,,0.00,Wunderground v.1.13,2013-03-07 08:22:00,
2013-03-07 02:32:00,-999.9,-99.9,30.14,East,80,1.0,1.0,255,0.00,,,0.00,Wunderground v.1.13,2013-03-07 08:32:00,
2013-03-07 02:42:00,-999.9,-99.9,30.14,East,80,1.0,2.0,255,0.00,,,0.00,Wunderground v.1.13,2013-03-07 08:42:00,
2013-03-07 02:52:00,-999.9,-99.9,30.13,East,80,2.0,2.0,255,0.00,,,0.00,Wunderground v.1.13,2013-03-07 08:52:00,
2013-03-07 03:02:00,-999.9,-99.9,30.12,East,80,2.0,2.0,255,0.00,,,0.00,Wunderground v.1.13,2013-03-07 09:02:00,
2013-03-07 03:12:00,-999.9,-99.9,30.12,East,80,2.0,2.0,255,0.00,,,0.00,Wunderground v.1.13,2013-03-07 09:12:00,
2013-03-07 03:27:00,-999.9,-99.9,30.11,East,80,2.0,2.0,255,0.00,,,0.00,Wunderground v.1.13,2013-03-07 09:27:00,
2013-03-07 03:32:00,-999.9,-99.9,30.11,East,80,2.0,2.0,255,0.00,,,0.00,Wunderground v.1.13,2013-03-07 09:32:00,
2013-03-07 03:42:00,-999.9,-99.9,30.10,East,80,2.0,2.0,255,0.00,,,0.00,Wunderground v.1.13,2013-03-07 09:42:00,
2013-03-07 03:52:00,-999.9,-99.9,30.11,East,80,1.0,3.0,255,0.00,,,0.00,Wunderground v.1.13,2013-03-07 09:52:00,
2013-03-07 04:02:00,-999.9,-99.9,30.10,East,80,1.0,2.0,255,0.00,,,0.00,Wunderground v.1.13,2013-03-07 10:02:00,
2013-03-07 04:12:00,-999.9,-99.9,30.10,East,80,0.0,0.0,255,0.00,,,0.00,Wunderground v.1.13,2013-03-07 10:12:00,
2013-03-07 04:22:00,-999.9,-99.9,30.10,East,80,1.0,1.0,255,0.00,,,0.00,Wunderground v.1.13,2013-03-07 10:22:00,
2013-03-07 04:32:00,-999.9,-99.9,30.10,East,80,1.0,1.0,255,0.00,,,0.00,Wunderground v.1.13,2013-03-07 10:32:00,
2013-03-07 04:42:00,-999.9,-99.9,30.09,East,80,1.0,1.0,255,0.00,,,0.00,Wunderground v.1.13,2013-03-07 10:42:00,
2013-03-07 04:52:00,-999.9,-99.9,30.10,East,80,1.0,1.0,255,0.00,,,0.00,Wunderground v.1.13,2013-03-07 10:52:00,
2013-03-07 05:02:00,-999.9,-99.9,30.10,East,80,1.0,1.0,255,0.00,,,0.00,Wunderground v.1.13,2013-03-07 11:02:00,
2013-03-07 05:12:00,-999.9,-99.9,30.10,East,80,1.0,1.0,255,0.00,,,0.00,Wunderground v.1.13,2013-03-07 11:12:00,
2013-03-07 05:22:00,-999.9,-99.9,30.11,East,80,0.0,1.0,255,0.00,,,0.00,Wunderground v.1.13,2013-03-07 11:22:00,
2013-03-07 05:32:00,-999.9,-99.9,30.11,East,80,0.0,0.0,255,0.00,,,0.00,Wunderground v.1.13,2013-03-07 11:32:00,
2013-03-07 05:42:00,-999.9,-99.9,30.11,East,80,0.0,0.0,255,0.00,,,0.00,Wunderground v.1.13,2013-03-07 11:42:00,
2013-03-07 05:52:00,-999.9,-99.9,30.11,East,80,0.0,0.0,255,0.00,,,0.00,Wunderground v.1.13,2013-03-07 11:52:00,
2013-03-07 06:02:00,-999.9,-99.9,30.11,East,80,0.0,0.0,255,0.00,,,0.00,Wunderground v.1.13,2013-03-07 12:02:00,
2013-03-07 06:17:00,-999.9,-99.9,30.11,East,80,0.0,0.0,255,0.00,,,0.00,Wunderground v.1.13,2013-03-07 12:17:00,
2013-03-07 06:22:00,-999.9,-99.9,30.12,East,80,1.0,1.0,255,0.00,,,0.00,Wunderground v.1.13,2013-03-07 12:22:00,
2013-03-07 06:32:00,-999.9,-99.9,30.13,East,80,0.0,0.0,255,0.00,,,0.00,Wunderground v.1.13,2013-03-07 12:32:00,
2013-03-07 06:42:00,-999.9,-99.9,30.12,East,80,1.0,2.0,255,0.00,,,0.00,Wunderground v.1.13,2013-03-07 12:42:00,
2013-03-07 06:52:00,-999.9,-99.9,30.13,East,80,1.0,1.0,255,0.00,,,0.00,Wunderground v.1.13,2013-03-07 12:52:00,
2013-03-07 07:02:00,-999.9,-99.9,30.13,East,80,0.0,0.0,255,0.00,,,0.00,Wunderground v.1.13,2013-03-07 13:02:00,
2013-03-07 07:12:00,-999.9,-99.9,30.13,East,80,0.0,0.0,255,0.00,,,0.00,Wunderground v.1.13,2013-03-07 13:12:00,
2013-03-07 07:22:00,-999.9,-99.9,30.13,East,80,0.0,0.0,255,0.00,,,0.00,Wunderground v.1.13,2013-03-07 13:22:00,
2013-03-07 07:32:00,-999.9,-99.9,30.13,East,80,0.0,1.0,255,0.00,,,0.00,Wunderground v.1.13,2013-03-07 13:32:00,
2013-03-07 07:47:00,-999.9,-99.9,30.14,East,80,0.0,0.0,255,0.00,,,0.00,Wunderground v.1.13,2013-03-07 13:47:00,
2013-03-07 07:52:00,-999.9,-99.9,30.14,East,80,0.0,0.0,255,0.00,,,0.00,Wunderground v.1.13,2013-03-07 13:52:00,
2013-03-07 08:02:00,-999.9,-99.9,30.15,East,80,1.0,2.0,255,0.00,,,0.00,Wunderground v.1.13,2013-03-07 14:02:00,
2013-03-07 08:12:00,-999.9,-99.9,30.15,East,80,1.0,1.0,255,0.00,,,0.00,Wunderground v.1.13,2013-03-07 14:12:00,
2013-03-07 08:22:00,-999.9,-99.9,30.15,East,80,2.0,2.0,255,0.00,,,0.00,Wunderground v.1.13,2013-03-07 14:22:00,
2013-03-07 08:32:00,-999.9,-99.9,30.15,East,80,1.0,3.0,255,0.00,,,0.00,Wunderground v.1.13,2013-03-07 14:32:00,
2013-03-07 08:42:00,-999.9,-99.9,30.16,East,80,2.0,2.0,255,0.00,,,0.00,Wunderground v.1.13,2013-03-07 14:42:00,
2013-03-07 08:52:00,-999.9,-99.9,30.16,East,82,2.0,3.0,255,0.00,,,0.00,Wunderground v.1.13,2013-03-07 14:52:00,
2013-03-07 09:02:00,-999.9,-99.9,30.16,East,83,2.0,2.0,255,0.00,,,0.00,Wunderground v.1.13,2013-03-07 15:02:00,
2013-03-07 09:12:00,-999.9,-99.9,30.16,East,92,1.0,7.0,255,0.00,,,0.00,Wunderground v.1.13,2013-03-07 15:12:00,
2013-03-07 09:22:00,-999.9,-99.9,30.16,East,101,3.0,3.0,255,0.00,,,0.00,Wunderground v.1.13,2013-03-07 15:22:00,
2013-03-07 09:32:00,-999.9,-99.9,30.17,East,101,3.0,3.0,255,0.00,,,0.00,Wunderground v.1.13,2013-03-07 15:32:00,
2013-03-07 09:42:00,-999.9,-99.9,30.17,East,98,2.0,3.0,255,0.00,,,0.00,Wunderground v.1.13,2013-03-07 15:42:00,
2013-03-07 09:52:00,-999.9,-99.9,30.18,ESE,105,4.0,5.0,255,0.00,,,0.00,Wunderground v.1.13,2013-03-07 15:52:00,
2013-03-07 10:02:00,-999.9,-99.9,30.18,ESE,105,3.0,3.0,255,0.00,,,0.00,Wunderground v.1.13,2013-03-07 16:02:00,
2013-03-07 10:12:00,-999.9,-99.9,30.18,ESE,106,2.0,2.0,255,0.00,,,0.00,Wunderground v.1.13,2013-03-07 16:12:00,
2013-03-07 10:22:00,-999.9,-99.9,30.18,ESE,105,2.0,2.0,255,0.00,,,0.00,Wunderground v.1.13,2013-03-07 16:22:00,
2013-03-07 10:32:00,-999.9,-99.9,30.18,ESE,105,2.0,4.0,255,0.00,,,0.00,Wunderground v.1.13,2013-03-07 16:32:00,
2013-03-07 10:42:00,-999.9,-99.9,30.17,ESE,107,3.0,3.0,255,0.00,,,0.00,Wunderground v.1.13,2013-03-07 16:42:00,
2013-03-07 10:52:00,-999.9,-99.9,30.18,ESE,107,3.0,3.0,255,0.00,,,0.00,Wunderground v.1.13,2013-03-07 16:52:00,
2013-03-07 11:02:00,-999.9,-99.9,30.18,ESE,116,2.0,3.0,255,0.00,,,0.00,Wunderground v.1.13,2013-03-07 17:02:00,
2013-03-07 11:12:00,-999.9,-99.9,30.17,ESE,102,3.0,4.0,255,0.00,,,0.00,Wunderground v.1.13,2013-03-07 17:12:00,
2013-03-07 11:22:00,-999.9,-99.9,30.16,ESE,103,2.0,5.0,255,0.00,,,0.00,Wunderground v.1.13,2013-03-07 17:22:00,
2013-03-07 11:32:00,-999.9,-99.9,30.16,East,80,3.0,3.0,255,0.00,,,0.00,Wunderground v.1.13,2013-03-07 17:32:00,
2013-03-07 11:42:00,-999.9,-99.9,30.16,East,92,4.0,4.0,255,0.00,,,0.00,Wunderground v.1.13,2013-03-07 17:42:00,
2013-03-07 11:52:00,-999.9,-99.9,30.15,East,82,5.0,5.0,255,0.00,,,0.00,Wunderground v.1.13,2013-03-07 17:52:00,
2013-03-07 12:02:00,-999.9,-99.9,30.15,East,94,4.0,4.0,255,0.00,,,0.00,Wunderground v.1.13,2013-03-07 18:02:00,
2013-03-07 12:12:00,-999.9,-99.9,30.15,ESE,112,5.0,5.0,255,0.00,,,0.00,Wunderground v.1.13,2013-03-07 18:12:00,
2013-03-07 12:22:00,-999.9,-99.9,30.14,East,86,5.0,5.0,255,0.00,,,0.00,Wunderground v.1.13,2013-03-07 18:22:00,
2013-03-07 12:32:00,-999.9,-99.9,30.15,East,90,5.0,9.0,255,0.00,,,0.00,Wunderground v.1.13,2013-03-07 18:32:00,
2013-03-07 12:42:00,-999.9,-99.9,30.14,East,101,4.0,6.0,255,0.00,,,0.00,Wunderground v.1.13,2013-03-07 18:42:00,
2013-03-07 12:52:00,-999.9,-99.9,30.13,East,101,4.0,5.0,255,0.00,,,0.00,Wunderground v.1.13,2013-03-07 18:52:00,
2013-03-07 13:02:00,-999.9,-99.9,30.12,East,98,5.0,9.0,255,0.00,,,0.00,Wunderground v.1.13,2013-03-07 19:02:00,
2013-03-07 13:12:00,-999.9,-99.9,30.12,ESE,105,6.0,6.0,255,0.00,,,0.00,Wunderground v.1.13,2013-03-07 19:12:00,
2013-03-07 13:27:00,-999.9,-99.9,30.12,ENE,63,4.0,4.0,255,0.00,,,0.00,Wunderground v.1.13,2013-03-07 19:27:00,
2013-03-07 13:32:00,-999.9,-99.9,30.11,East,88,4.0,5.0,255,0.00,,,0.00,Wunderground v.1.13,2013-03-07 19:32:00,
2013-03-07 13:42:00,-999.9,-99.9,30.10,East,92,4.0,4.0,255,0.00,,,0.00,Wunderground v.1.13,2013-03-07 19:42:00,
2013-03-07 13:52:00,-999.9,-99.9,30.10,ESE,123,6.0,6.0,255,0.00,,,0.00,Wunderground v.1.13,2013-03-07 19:52:00,
2013-03-07 14:06:00,-999.9,-99.9,30.10,ENE,59,5.0,5.0,255,0.00,,,0.00,Wunderground v.1.13,2013-03-07 20:06:00,
2013-03-07 14:12:00,-999.9,-99.9,30.09,East,94,4.0,4.0,255,0.00,,,0.00,Wunderground v.1.13,2013-03-07 20:12:00,
2013-03-07 14:22:00,-999.9,-99.9,30.09,East,91,5.0,6.0,255,0.00,,,0.00,Wunderground v.1.13,2013-03-07 20:22:00,
2013-03-07 14:32:00,-999.9,-99.9,30.09,ESE,113,4.0,10.0,255,0.00,,,0.00,Wunderground v.1.13,2013-03-07 20:32:00,
2013-03-07 14:42:00,-999.9,-99.9,30.10,East,84,5.0,6.0,255,0.00,,,0.00,Wunderground v.1.13,2013-03-07 20:42:00,
2013-03-07 14:52:00,-999.9,-99.9,30.09,ESE,102,6.0,9.0,255,0.00,,,0.00,Wunderground v.1.13,2013-03-07 20:52:00,
2013-03-07 15:02:00,-999.9,-99.9,30.09,ESE,121,6.0,6.0,255,0.00,,,0.00,Wunderground v.1.13,2013-03-07 21:02:00,
2013-03-07 15:12:00,-999.9,-99.9,30.09,East,101,5.0,5.0,255,0.00,,,0.00,Wunderground v.1.13,2013-03-07 21:12:00,
2013-03-07 15:22:00,-999.9,-99.9,30.09,East,99,6.0,9.0,255,0.00,,,0.00,Wunderground v.1.13,2013-03-07 21:22:00,
2013-03-07 15:32:00,-999.9,-99.9,30.09,ENE,69,5.0,5.0,255,0.00,,,0.00,Wunderground v.1.13,2013-03-07 21:32:00,
2013-03-07 15:42:00,-999.9,-99.9,30.08,East,97,4.0,6.0,255,0.00,,,0.00,Wunderground v.1.13,2013-03-07 21:42:00,
2013-03-07 15:52:00,-999.9,-99.9,30.09,East,90,4.0,4.0,255,0.00,,,0.00,Wunderground v.1.13,2013-03-07 21:52:00,
2013-03-07 16:02:00,-999.9,-99.9,30.09,ESE,105,5.0,5.0,255,0.00,,,0.00,Wunderground v.1.13,2013-03-07 22:02:00,
2013-03-07 16:12:00,-999.9,-99.9,30.08,East,97,4.0,4.0,255,0.00,,,0.00,Wunderground v.1.13,2013-03-07 22:12:00,
2013-03-07 16:22:00,-999.9,-99.9,30.07,ESE,106,4.0,4.0,255,0.00,,,0.00,Wunderground v.1.13,2013-03-07 22:22:00,
2013-03-07 16:32:00,-999.9,-99.9,30.07,ESE,112,3.0,10.0,255,0.00,,,0.00,Wunderground v.1.13,2013-03-07 22:32:00,
2013-03-07 16:42:00,-999.9,-99.9,30.08,East,93,4.0,4.0,255,0.00,,,0.00,Wunderground v.1.13,2013-03-07 22:42:00,
2013-03-07 16:52:00,-999.9,-99.9,30.08,East,100,3.0,3.0,255,0.00,,,0.00,Wunderground v.1.13,2013-03-07 22:52:00,
2013-03-07 17:02:00,-999.9,-99.9,30.08,ESE,110,4.0,6.0,255,0.00,,,0.00,Wunderground v.1.13,2013-03-07 23:02:00,
2013-03-07 17:12:00,-999.9,-99.9,30.07,ENE,69,4.0,4.0,255,0.00,,,0.00,Wunderground v.1.13,2013-03-07 23:12:00,
2013-03-07 17:22:00,-999.9,-99.9,30.08,East,89,3.0,8.0,255,0.00,,,0.00,Wunderground v.1.13,2013-03-07 23:22:00,
2013-03-07 17:33:00,-999.9,-99.9,30.07,East,96,4.0,9.0,255,0.00,,,0.00,Wunderground v.1.13,2013-03-07 23:33:00,
2013-03-07 17:42:00,-999.9,-99.9,30.08,East,99,4.0,6.0,255,0.00,,,0.00,Wunderground v.1.13,2013-03-07 23:42:00,
2013-03-07 17:52:00,-999.9,-99.9,30.09,ESE,104,3.0,3.0,255,0.00,,,0.00,Wunderground v.1.13,2013-03-07 23:52:00,
2013-03-07 18:07:00,-999.9,-99.9,30.09,East,96,4.0,4.0,255,0.00,,,0.00,Wunderground v.1.13,2013-03-08 00:07:00,
2013-03-07 18:12:00,-999.9,-99.9,30.09,ESE,106,4.0,4.0,255,0.00,,,0.00,Wunderground v.1.13,2013-03-08 00:12:00,
2013-03-07 18:22:00,-999.9,-99.9,30.09,ENE,71,3.0,3.0,255,0.00,,,0.00,Wunderground v.1.13,2013-03-08 00:22:00,
2013-03-07 18:32:00,-999.9,-99.9,30.09,East,101,3.0,5.0,255,0.00,,,0.00,Wunderground v.1.13,2013-03-08 00:32:00,
2013-03-07 18:42:00,-999.9,-99.9,30.09,East,84,3.0,3.0,255,0.00,,,0.00,Wunderground v.1.13,2013-03-08 00:42:00,
2013-03-07 18:52:00,-999.9,-99.9,30.09,East,85,4.0,4.0,255,0.00,,,0.00,Wunderground v.1.13,2013-03-08 00:52:00,
2013-03-07 19:02:00,-999.9,-99.9,30.09,East,86,4.0,4.0,255,0.00,,,0.00,Wunderground v.1.13,2013-03-08 01:02:00,
2013-03-07 19:12:00,-999.9,-99.9,30.09,East,83,4.0,5.0,255,0.00,,,0.00,Wunderground v.1.13,2013-03-08 01:12:00,
2013-03-07 19:22:00,-999.9,-99.9,30.09,ENE,64,3.0,3.0,255,0.00,,,0.00,Wunderground v.1.13,2013-03-08 01:22:00,
2013-03-07 19:32:00,-999.9,-99.9,30.09,ENE,76,3.0,4.0,255,0.00,,,0.00,Wunderground v.1.13,2013-03-08 01:32:00,
2013-03-07 19:42:00,-999.9,-99.9,30.09,East,86,3.0,4.0,255,0.00,,,0.00,Wunderground v.1.13,2013-03-08 01:42:00,
2013-03-07 19:52:00,-999.9,-99.9,30.09,East,96,3.0,5.0,255,0.00,,,0.00,Wunderground v.1.13,2013-03-08 01:52:00,
2013-03-07 20:02:00,-999.9,-99.9,30.09,East,93,3.0,3.0,255,0.00,,,0.00,Wunderground v.1.13,2013-03-08 02:02:00,
2013-03-07 20:12:00,-999.9,-99.9,30.10,East,98,3.0,3.0,255,0.00,,,0.00,Wunderground v.1.13,2013-03-08 02:12:00,
2013-03-07 20:22:00,-999.9,-99.9,30.09,East,94,3.0,3.0,255,0.00,,,0.00,Wunderground v.1.13,2013-03-08 02:22:00,
2013-03-07 20:32:00,-999.9,-99.9,30.09,East,91,3.0,3.0,255,0.00,,,0.00,Wunderground v.1.13,2013-03-08 02:32:00,
2013-03-07 20:42:00,-999.9,-99.9,30.09,East,92,3.0,3.0,255,0.00,,,0.00,Wunderground v.1.13,2013-03-08 02:42:00,
2013-03-07 20:52:00,-999.9,-99.9,30.10,East,82,2.0,3.0,255,0.00,,,0.00,Wunderground v.1.13,2013-03-08 02:52:00,
2013-03-07 21:02:00,-999.9,-99.9,30.11,East,88,2.0,2.0,255,0.00,,,0.00,Wunderground v.1.13,2013-03-08 03:02:00,
2013-03-07 21:12:00,-999.9,-99.9,30.10,East,87,2.0,2.0,255,0.00,,,0.00,Wunderground v.1.13,2013-03-08 03:12:00,
2013-03-07 21:22:00,-999.9,-99.9,30.11,East,88,3.0,4.0,255,0.00,,,0.00,Wunderground v.1.13,2013-03-08 03:22:00,
2013-03-07 21:32:00,-999.9,-99.9,30.11,East,89,2.0,2.0,255,0.00,,,0.00,Wunderground v.1.13,2013-03-08 03:32:00,
2013-03-07 21:42:00,-999.9,-99.9,30.10,East,90,2.0,2.0,255,0.00,,,0.00,Wunderground v.1.13,2013-03-08 03:42:00,
2013-03-07 21:52:00,-999.9,-99.9,30.10,East,91,2.0,6.0,255,0.00,,,0.00,Wunderground v.1.13,2013-03-08 03:52:00,
2013-03-07 22:02:00,-999.9,-99.9,30.10,East,100,4.0,4.0,255,0.00,,,0.00,Wunderground v.1.13,2013-03-08 04:02:00,
2013-03-07 22:12:00,-999.9,-99.9,30.10,East,95,3.0,5.0,255,0.00,,,0.00,Wunderground v.1.13,2013-03-08 04:12:00,
2013-03-07 22:22:00,-999.9,-99.9,30.10,ESE,102,3.0,3.0,255,0.00,,,0.00,Wunderground v.1.13,2013-03-08 04:22:00,
2013-03-07 22:32:00,-999.9,-99.9,30.10,ESE,111,4.0,7.0,255,0.00,,,0.00,Wunderground v.1.13,2013-03-08 04:32:00,
2013-03-07 22:42:00,-999.9,-99.9,30.10,ESE,108,3.0,6.0,255,0.00,,,0.00,Wunderground v.1.13,2013-03-08 04:42:00,
2013-03-07 22:52:00,-999.9,-99.9,30.09,East,99,4.0,5.0,255,0.00,,,0.00,Wunderground v.1.13,2013-03-08 04:52:00,
2013-03-07 23:02:00,-999.9,-99.9,30.09,East,98,3.0,4.0,255,0.00,,,0.00,Wunderground v.1.13,2013-03-08 05:02:00,
2013-03-07 23:07:00,-999.9,-99.9,30.09,East,101,3.0,4.0,255,0.00,,,0.00,Wunderground v.1.13,2013-03-08 05:07:00,
2013-03-07 23:12:00,-999.9,-99.9,30.10,East,98,3.0,3.0,255,0.00,,,0.00,Wunderground v.1.13,2013-03-08 05:12:00,
2013-03-07 23:22:00,-999.9,-99.9,30.09,ESE,102,4.0,4.0,255,0.00,,,0.00,Wunderground v.1.13,2013-03-08 05:22:00,
2013-03-07 23:27:00,-999.9,-99.9,30.09,ESE,103,4.0,6.0,255,0.00,,,0.00,Wunderground v.1.13,2013-03-08 05:27:00,
2013-03-07 23:32:00,-999.9,-99.9,30.07,East,93,4.0,4.0,255,0.00,,,0.00,Wunderground v.1.13,2013-03-08 05:32:00,
2013-03-07 23:42:00,-999.9,-99.9,30.07,ESE,103,3.0,3.0,255,0.00,,,0.00,Wunderground v.1.13,2013-03-08 05:42:00,
2013-03-07 23:52:00,-999.9,-99.9,30.08,ESE,107,4.0,4.0,255,0.00,,,0.00,Wunderground v.1.13,2013-03-08 05:52:00,